[[{"header":{"parameterUnit":"m.s-1","parameterCategory":1,"la1":30.2991,"la2":30.254,"lo1":-89.0895,"lo2":-89.0444,"dy":0.0017,"dx":0.0017,"nx":28,"ny":28,"refTime":"2025-06-01T03:00:00:Z","depth":0,"parameterNumber":2,"parameterNumberName":"U-component_of_WINDS"},"data":[0,0,0,0,0,0,0,0,0,0,0,0,0,0,0,0,0,0,0,0,0,0,0,0,0,0,0,0,0,0,0,0,0,0,0,0,0,0,0,0,0,0,0,0,0,0,0,0,0,0,0,0,0,0,0,0,0,0,2.1343,2.1344,0,2.1448,2.1449,2.145,2.1475,2.1474,2.1473,2.1473,2.1578,2.1581,2.1585,0,0,0,0,0,0,0,0,0,0,0,0,0,2.1162,2.1165,2.1343,2.1344,2.1346,2.1448,2.1449,2.1451,2.1475,2.1474,2.1473,2.1472,2.1577,2.1581,2.1585,0,0,0,0,0,0,0,0,0,0,0,0,0,2.1251,2.1166,2.1343,2.137,2.1374,2.1447,2.1449,2.1451,2.1475,2.1474,2.1473,2.1472,2.1576,2.1581,2.1586,2.1639,0,0,2.1602,2.1604,0,0,0,0,0,0,0,0,2.1246,2.1257,2.1365,2.1369,2.1373,2.1447,2.1424,2.1514,2.1475,2.1436,2.1473,2.1471,2.1535,2.1544,2.1566,2.1644,2.1649,2.1602,2.1605,2.1607,2.1609,0,0,0,0,0,0,0,2.1239,2.1253,2.1385,2.1366,2.1371,2.1376,2.1388,2.1441,2.149,2.144,2.1442,2.1454,2.1537,2.156,2.1568,2.165,2.1602,2.1607,2.161,2.1612,2.1775,2.1776,0,0,0,0,0,0,2.1229,2.1248,2.1381,2.1388,2.1305,2.138,2.1393,2.1424,2.149,2.1499,2.1455,2.1455,2.1552,2.1562,2.1572,2.1637,2.1607,2.1612,2.1615,2.1774,2.1776,2.1777,0,0,0,0,0,0,2.1225,2.124,2.1377,2.1318,2.1336,2.1385,2.1419,2.1427,2.145,2.1501,2.151,2.147,2.1552,2.1565,2.1622,2.1641,2.1615,2.1619,2.1773,2.1774,2.1776,2.1769,0,0,0,0,0,0,2.1219,2.1239,2.126,2.1319,2.1339,2.1426,2.1421,2.143,2.1459,2.146,2.1518,2.1526,2.1552,2.1614,2.1627,2.1648,2.1623,2.1771,2.1773,2.1776,2.1767,2.177,2.1772,0,0,0,0,0,2.1213,2.1254,2.1261,2.1277,2.1367,2.1427,2.1439,2.1468,2.1461,2.1482,2.1515,2.1524,2.1637,2.162,2.1635,2.1657,2.177,2.1773,2.1775,2.1766,2.177,2.1772,0,0,0,0,0,0,2.1196,2.1262,2.1271,2.1333,2.1374,2.1431,2.1459,2.1471,2.1514,2.1513,2.1547,2.156,2.1614,2.1642,2.1621,2.1711,2.1703,2.1709,2.1691,2.1695,2.1697,2.1689,2.1628,0,0,0,0,0,2.12,2.1244,2.1299,2.1348,2.1368,2.141,2.1437,2.1456,2.15,2.1517,2.1554,2.1596,2.1641,2.1669,2.1714,2.1772,2.1784,2.1795,2.1797,2.1799,2.1803,2.1834,2.1839,2.1786,2.1786,2.1786,0,0,2.1208,2.1249,2.1275,2.1346,2.138,2.1423,2.1424,2.1471,2.1503,2.1524,2.158,2.1609,2.1657,2.1715,2.1742,2.1739,2.182,2.1802,2.1803,2.1807,2.1837,2.1842,2.1847,2.1788,2.1787,2.1787,0,0,2.1244,2.128,2.1324,2.1359,2.1411,2.1438,2.1448,2.1504,2.1523,2.158,2.1596,2.1635,2.1712,2.1745,2.1772,2.182,2.1829,2.1833,2.1845,2.1875,2.1879,2.1883,2.1898,2.1903,2.1837,2.1837,2.1837,0,2.1246,2.1314,2.1345,2.1391,2.142,2.1442,2.1486,2.1517,2.1581,2.16,2.1597,2.1692,2.1727,2.1791,2.1803,2.1825,2.1836,2.1826,2.1876,2.188,2.1884,2.1899,2.1905,2.1837,2.1837,2.1837,2.1837,0,2.1313,2.136,2.1389,2.1449,2.1483,2.1527,2.1564,2.1594,2.1609,2.1637,2.1693,2.1735,2.1787,2.1804,2.182,2.1871,2.1867,2.187,2.1862,2.1889,2.1903,2.1909,2.1837,2.1837,2.1837,2.1837,0,0,2.1342,2.1419,2.1429,2.1456,2.1515,2.155,2.1595,2.1646,2.167,2.1713,2.175,2.1814,2.1816,2.1847,2.1867,2.1893,2.1926,2.1892,2.1894,2.1895,2.1981,2.1978,2.1984,2.1933,2.1934,2.1935,2.1977,0,2.1383,2.1464,2.1493,2.156,2.1602,2.1622,2.1661,2.17,2.1727,2.1766,2.1795,2.1839,2.1839,2.1857,2.1885,2.1916,2.1943,2.1914,2.1966,2.1968,2.1952,2.1992,2.1989,2.2026,2.1983,2.1984,2.1984,0,2.1443,2.1486,2.1557,2.1609,2.1627,2.1662,2.171,2.1748,2.1792,2.1809,2.1843,2.1861,2.1907,2.1897,2.196,2.194,2.1963,2.1981,2.1984,2.1988,2.1977,2.1996,2.2039,2.2044,2.1994,2.1993,2.1992,0,2.1454,2.153,2.1582,2.1605,2.1667,2.169,2.1717,2.1761,2.179,2.1832,2.185,2.1897,2.1923,2.1958,2.1988,2.1978,2.2047,2.2041,2.2062,2.2061,2.2074,2.2073,2.212,2.2092,2.2092,2.2092,2.2091,0,2.1496,2.1538,2.1587,2.1619,2.1666,2.1698,2.1743,2.1772,2.181,2.1846,2.1868,2.1901,2.1939,2.1977,2.2001,2.2048,2.206,2.2074,2.2079,2.2071,2.2069,2.2086,2.2084,2.2093,2.2093,2.2092,2.2092,0,2.1516,2.1551,2.1608,2.1663,2.1677,2.1709,2.1755,2.1786,2.1813,2.1859,2.1872,2.1914,2.196,2.1993,2.2053,2.2068,2.2118,2.2125,2.2103,2.2106,2.2124,2.2121,2.2182,2.2191,2.2159,2.2159,2.2159,0,2.154,2.1572,2.163,2.1657,2.1684,2.1726,2.1755,2.1788,2.1817,2.187,2.1894,2.1941,2.198,2.2052,2.2088,2.2133,2.2139,2.2158,2.2146,2.2136,2.2138,2.2135,2.2137,2.2159,2.2159,2.2159,2.2159,0,2.1578,2.1594,2.1635,2.1683,2.1717,2.1756,2.1795,2.1815,2.1855,2.1886,2.1933,2.1964,2.2024,2.207,2.2119,2.2145,2.2158,2.2163,2.217,2.2161,2.2147,2.2153,2.2106,2.2161,2.2161,2.2161,2.2161,2.2161,2.16,2.1629,2.1674,2.1719,2.1752,2.1788,2.1819,2.185,2.189,2.1942,2.1959,2.2008,2.205,2.2116,2.2144,2.2181,2.218,2.2191,2.2193,2.2195,2.2194,2.2142,2.219,2.219,2.219,2.219,2.219,0,2.1637,2.1667,2.1709,2.1763,2.1798,2.1808,2.1852,2.188,2.1923,2.1961,2.2,2.2053,2.2098,2.2137,2.2183,2.2205,2.2212,2.2216,2.2214,2.2219,2.2192,2.2181,2.2209,2.2209,2.2209,2.2209,2.2209,2.2209,2.1661,2.1711,2.1731,2.1797,2.1827,2.1875,2.1898,2.1931,2.1962,2.2021,2.2058,2.2083,2.2122,2.2171,2.2212,2.2222,2.2237,2.2239,2.225,2.2224,2.2222,2.2219,2.2209,2.2242,2.2242,2.2274,2.2275,2.2275]},{"header":{"parameterUnit":"m.s-1","parameterCategory":1,"la1":30.2991,"la2":30.254,"lo1":-89.0895,"lo2":-89.0444,"dy":0.0017,"dx":0.0017,"nx":28,"ny":28,"refTime":"2025-06-01T03:00:00:Z","depth":0,"parameterNumber":3,"parameterNumberName":"V-component_of_WINDS"},"data":[0,0,0,0,0,0,0,0,0,0,0,0,0,0,0,0,0,0,0,0,0,0,0,0,0,0,0,0,0,0,0,0,0,0,0,0,0,0,0,0,0,0,0,0,0,0,0,0,0,0,0,0,0,0,0,0,0,0,2.8826,2.8824,0,2.866,2.8658,2.8656,2.8535,2.8534,2.8533,2.8532,2.8357,2.8354,2.835,0,0,0,0,0,0,0,0,0,0,0,0,0,2.9031,2.9028,2.8826,2.8824,2.8822,2.866,2.8658,2.8656,2.8535,2.8534,2.8533,2.8531,2.8359,2.8354,2.835,0,0,0,0,0,0,0,0,0,0,0,0,0,2.8912,2.9027,2.8826,2.8742,2.8733,2.8661,2.8658,2.8655,2.8535,2.8534,2.8532,2.8531,2.836,2.8355,2.8349,2.8346,0,0,2.8332,2.833,0,0,0,0,0,0,0,0,2.8918,2.8904,2.8757,2.8748,2.8737,2.8617,2.8666,2.8551,2.8536,2.861,2.8532,2.853,2.8445,2.8432,2.8404,2.8338,2.833,2.8332,2.8328,2.8326,2.8324,0,0,0,0,0,0,0,2.8927,2.891,2.876,2.8755,2.8743,2.871,2.8692,2.8644,2.8538,2.8604,2.8594,2.8577,2.8439,2.841,2.8399,2.8328,2.8332,2.8327,2.8324,2.8321,2.8244,2.8246,0,0,0,0,0,0,2.8949,2.8918,2.8765,2.8755,2.8826,2.8708,2.8687,2.8657,2.8538,2.8519,2.8578,2.8572,2.842,2.8406,2.8393,2.8377,2.8326,2.8321,2.8318,2.8243,2.8245,2.8246,0,0,0,0,0,0,2.8954,2.8937,2.8772,2.8834,2.8811,2.8706,2.8673,2.8654,2.8625,2.8519,2.8499,2.8568,2.8418,2.84,2.8357,2.8369,2.8318,2.8313,2.8242,2.8244,2.8245,2.8348,0,0,0,0,0,0,2.8961,2.8939,2.8939,2.8835,2.8808,2.8742,2.8674,2.8652,2.8616,2.8606,2.8504,2.8486,2.8416,2.8366,2.8352,2.8361,2.8309,2.824,2.8243,2.8245,2.8343,2.8354,2.8362,0,0,0,0,0,2.8968,2.8974,2.8939,2.8922,2.8805,2.8743,2.8727,2.8648,2.8618,2.8615,2.8546,2.8489,2.8371,2.8363,2.8346,2.8353,2.8239,2.8242,2.8245,2.8339,2.8352,2.8362,0,0,0,0,0,0,2.9081,2.8959,2.8919,2.8892,2.8829,2.8723,2.8717,2.8664,2.8607,2.86,2.8502,2.848,2.8446,2.8395,2.8389,2.8341,2.8297,2.8297,2.8375,2.8386,2.8396,2.8407,2.8304,0,0,0,0,0,2.9103,2.9065,2.896,2.8946,2.8917,2.8823,2.8793,2.8737,2.8667,2.8639,2.8567,2.85,2.8446,2.8414,2.836,2.8336,2.831,2.8332,2.8342,2.835,2.835,2.8329,2.8337,2.8255,2.8255,2.8255,0,0,2.9148,2.9076,2.9058,2.8967,2.8911,2.8871,2.8801,2.8762,2.873,2.8632,2.8587,2.8532,2.845,2.8416,2.8397,2.8372,2.8367,2.8354,2.8361,2.8356,2.8333,2.834,2.8347,2.8257,2.8257,2.8257,0,0,2.9208,2.9152,2.9132,2.9078,2.8995,2.8932,2.8927,2.8828,2.8788,2.8741,2.8666,2.8626,2.8538,2.8481,2.8441,2.8477,2.8421,2.8462,2.851,2.8491,2.8498,2.8503,2.8512,2.8517,2.8463,2.8463,2.8463,0,2.9273,2.9211,2.9129,2.9093,2.9054,2.8964,2.8941,2.8892,2.8796,2.8769,2.8743,2.8628,2.8567,2.8516,2.8525,2.8497,2.8485,2.8472,2.8504,2.8508,2.8512,2.8519,2.8523,2.8468,2.8468,2.8467,2.8467,0,2.9294,2.9252,2.9246,2.9155,2.9114,2.9086,2.8996,2.8965,2.8912,2.8851,2.8802,2.8726,2.8653,2.8637,2.8585,2.8577,2.8564,2.8523,2.8476,2.8526,2.8531,2.8534,2.8476,2.8474,2.8473,2.8471,0,0,2.942,2.9282,2.9281,2.9237,2.9138,2.9103,2.9069,2.8998,2.8971,2.8907,2.8873,2.88,2.876,2.8715,2.8655,2.8639,2.8667,2.8598,2.8595,2.8611,2.8649,2.8679,2.8684,2.863,2.8631,2.8631,2.8655,0,2.9462,2.9397,2.9321,2.9281,2.9239,2.9152,2.9122,2.9056,2.8998,2.8952,2.8886,2.8834,2.8788,2.8759,2.8739,2.8669,2.8673,2.8666,2.8595,2.8593,2.8615,2.8687,2.8719,2.8746,2.8657,2.8657,2.8657,0,2.9502,2.9442,2.9399,2.93,2.928,2.9254,2.9181,2.914,2.9062,2.902,2.8969,2.8905,2.8861,2.8822,2.8758,2.8755,2.8721,2.8681,2.868,2.8668,2.8627,2.8674,2.8753,2.8756,2.866,2.866,2.866,0,2.9594,2.9503,2.9464,2.9429,2.9315,2.9298,2.9249,2.917,2.9131,2.9067,2.904,2.8972,2.8934,2.8881,2.8798,2.8778,2.8742,2.8697,2.8703,2.8705,2.8697,2.8698,2.8768,2.8681,2.8681,2.8681,2.8681,0,2.9647,2.9623,2.9503,2.9479,2.9448,2.9359,2.9331,2.9273,2.9203,2.9164,2.9086,2.905,2.8946,2.8897,2.8832,2.8787,2.8771,2.8733,2.8716,2.8739,2.8743,2.8713,2.8708,2.8682,2.8682,2.8681,2.8681,0,2.9743,2.9663,2.9614,2.9509,2.9482,2.9464,2.9372,2.9344,2.9281,2.9232,2.9215,2.9115,2.9053,2.8967,2.8879,2.8835,2.8797,2.8772,2.8824,2.8813,2.8823,2.8822,2.8874,2.8874,2.8791,2.8791,2.8792,0,2.9781,2.976,2.9653,2.9622,2.9575,2.9527,2.9486,2.9397,2.9358,2.9267,2.9249,2.9181,2.9122,2.9027,2.8944,2.8875,2.8845,2.8868,2.8834,2.8856,2.8841,2.8842,2.8838,2.8876,2.8877,2.8878,2.8879,0,2.9855,2.9816,2.9762,2.9694,2.9648,2.959,2.9527,2.9506,2.9403,2.9362,2.9299,2.9253,2.9162,2.9095,2.9014,2.896,2.8901,2.8891,2.8887,2.8909,2.8939,2.8919,2.8843,2.8889,2.8888,2.8888,2.8887,2.8887,2.992,2.9897,2.9817,2.9758,2.9702,2.9645,2.9613,2.9545,2.9491,2.9411,2.9361,2.9299,2.9218,2.9104,2.9053,2.9001,2.8977,2.8974,2.8972,2.8972,2.8978,2.895,2.8986,2.8986,2.8985,2.8985,2.8985,0,2.9987,2.9931,2.9879,2.9794,2.9747,2.9698,2.9626,2.9589,2.9536,2.9466,2.941,2.9335,2.9268,2.9181,2.9107,2.9082,2.9052,2.9065,2.9064,2.9052,2.9006,2.9014,2.909,2.909,2.909,2.909,2.909,2.909,3.0016,2.9972,2.9923,2.985,2.9793,2.9732,2.9695,2.964,2.9584,2.9504,2.9449,2.9393,2.9315,2.9234,2.917,2.9145,2.912,2.9141,2.9108,2.9066,2.9056,2.9047,2.9054,2.9137,2.9137,2.9158,2.9158,2.9159]}]]